Location: Bratsk-Energetik
(56.3300°N, 101.7600°E)
Time: 20:49:53
(UTC+08:00)

ISS - Visible Passes

Search period start: 03 December 2022 00:00
Search period end: 13 December 2022 00:00
Orbit: 414 x 420 km, 51.6° (Epoch: 03 December)

Date Brightness Start Highest point End Pass type
(mag) Time Alt. Az. Time Alt. Az. Time Alt. Az.
03 Dec -1.6 18:39:51 10° WSW 18:42:35 23° SSW 18:45:19 10° SSE visible
04 Dec -1.8 17:51:42 10° WSW 17:54:37 28° SSW 17:57:32 10° SE visible
04 Dec -0.7 19:29:34 10° SW 19:30:36 11° SW 19:31:39 10° SSW visible
05 Dec -0.8 18:40:43 10° WSW 18:42:43 15° SSW 18:44:42 10° S visible
06 Dec -1.0 17:52:17 10° WSW 17:54:46 19° SSW 17:57:14 10° SSE visible
08 Dec -0.4 17:53:30 10° WSW 17:54:41 12° SW 17:55:53 10° SSW visible
